[[{"header":{"parameterUnit":"m.s-1","parameterCategory":1,"la1":30.2991,"la2":30.254,"lo1":-89.0895,"lo2":-89.0444,"dy":0.0017,"dx":0.0017,"nx":28,"ny":28,"refTime":"2023-10-25T03:00:00:Z","depth":0,"parameterNumber":2,"parameterNumberName":"U-component_of_WINDS"},"data":[0,0,0,0,0,0,0,0,0,0,0,0,0,0,0,0,0,0,0,0,0,0,0,0,0,0,0,0,0,0,0,0,0,0,0,0,0,0,0,0,0,0,0,0,0,0,0,0,0,0,0,0,0,0,0,0,0,0,-5.3624,-5.3625,0,-5.3756,-5.3757,-5.3758,-5.3771,-5.377,-5.3768,-5.3767,-5.3898,-5.3903,-5.3908,0,0,0,0,0,0,0,0,0,0,0,0,0,-5.3384,-5.3388,-5.3624,-5.3625,-5.3627,-5.3755,-5.3757,-5.3759,-5.3771,-5.377,-5.3768,-5.3766,-5.3897,-5.3902,-5.3908,0,0,0,0,0,0,0,0,0,0,0,0,0,-5.3499,-5.339,-5.3623,-5.3649,-5.3652,-5.3755,-5.3757,-5.3759,-5.3772,-5.3769,-5.3767,-5.3766,-5.3895,-5.3902,-5.3909,-5.3994,0,0,-5.3931,-5.3934,0,0,0,0,0,0,0,0,-5.3493,-5.3508,-5.3643,-5.3647,-5.3651,-5.3745,-5.3721,-5.3838,-5.3772,-5.3726,-5.3767,-5.3764,-5.3849,-5.386,-5.3889,-5.4,-5.4006,-5.3931,-5.3936,-5.3939,-5.3941,0,0,0,0,0,0,0,-5.3485,-5.3502,-5.3676,-5.3645,-5.365,-5.3654,-5.3668,-5.3743,-5.3797,-5.373,-5.3731,-5.3747,-5.385,-5.3882,-5.3892,-5.4008,-5.3931,-5.3938,-5.3942,-5.3945,-5.4201,-5.4204,0,0,0,0,0,0,-5.3472,-5.3496,-5.3672,-5.368,-5.3565,-5.366,-5.3676,-5.3717,-5.3796,-5.3807,-5.3748,-5.3747,-5.387,-5.3883,-5.3896,-5.4003,-5.3939,-5.3946,-5.395,-5.4199,-5.4202,-5.4205,0,0,0,0,0,0,-5.3467,-5.3488,-5.3666,-5.3588,-5.3611,-5.3666,-5.3712,-5.372,-5.3752,-5.3811,-5.382,-5.377,-5.3869,-5.3886,-5.3971,-5.4008,-5.3949,-5.3955,-5.4196,-5.42,-5.4203,-5.4216,0,0,0,0,0,0,-5.346,-5.3486,-5.3518,-5.3589,-5.3615,-5.3738,-5.3715,-5.3725,-5.3764,-5.3764,-5.3833,-5.3843,-5.3869,-5.396,-5.3978,-5.4017,-5.3961,-5.4193,-5.4198,-5.4202,-5.4213,-5.422,-5.4227,0,0,0,0,0,-5.3451,-5.3514,-5.3519,-5.354,-5.3657,-5.374,-5.3755,-5.3785,-5.3767,-5.38,-5.384,-5.3841,-5.4002,-5.3969,-5.3989,-5.403,-5.419,-5.4196,-5.4202,-5.421,-5.4219,-5.4226,0,0,0,0,0,0,-5.3443,-5.3524,-5.353,-5.3618,-5.3673,-5.3742,-5.3784,-5.3793,-5.3852,-5.3848,-5.3882,-5.3898,-5.3982,-5.4015,-5.3977,-5.412,-5.4095,-5.4105,-5.4094,-5.4103,-5.411,-5.4098,-5.3967,0,0,0,0,0,-5.3452,-5.3514,-5.3581,-5.3652,-5.368,-5.3728,-5.3765,-5.3784,-5.3841,-5.3863,-5.3908,-5.3963,-5.4027,-5.4067,-5.4129,-5.422,-5.4236,-5.4259,-5.4266,-5.4271,-5.4278,-5.4332,-5.4343,-5.4223,-5.4223,-5.4223,0,0,-5.347,-5.3522,-5.3558,-5.3652,-5.3696,-5.376,-5.3746,-5.3813,-5.386,-5.3873,-5.3956,-5.3992,-5.4056,-5.4145,-5.4186,-5.4175,-5.4316,-5.4278,-5.4282,-5.4286,-5.4338,-5.435,-5.436,-5.4227,-5.4226,-5.4226,0,0,-5.3534,-5.358,-5.3646,-5.3692,-5.3761,-5.3794,-5.381,-5.388,-5.3905,-5.399,-5.4002,-5.406,-5.4167,-5.4214,-5.4251,-5.4342,-5.4346,-5.4361,-5.4395,-5.4447,-5.4456,-5.4465,-5.4497,-5.4509,-5.4369,-5.4369,-5.4369,0,-5.3547,-5.3643,-5.3678,-5.3746,-5.3788,-5.3807,-5.3874,-5.3917,-5.4002,-5.4031,-5.4018,-5.4158,-5.4202,-5.4303,-5.4326,-5.4356,-5.4376,-5.4351,-5.4452,-5.4461,-5.447,-5.4501,-5.4513,-5.437,-5.437,-5.437,-5.437,0,-5.3656,-5.3723,-5.3768,-5.3852,-5.39,-5.3967,-5.4013,-5.4058,-5.4075,-5.411,-5.4198,-5.4254,-5.4328,-5.4354,-5.437,-5.446,-5.4451,-5.4445,-5.442,-5.4482,-5.4512,-5.4524,-5.4372,-5.4372,-5.4371,-5.4371,0,0,-5.3712,-5.382,-5.3836,-5.3876,-5.3957,-5.4009,-5.408,-5.4155,-5.4193,-5.4253,-5.4313,-5.4408,-5.4405,-5.4448,-5.447,-5.4516,-5.4586,-5.4505,-5.4507,-5.4518,-5.469,-5.4692,-5.4705,-5.4592,-5.4594,-5.4596,-5.4684,0,-5.3785,-5.391,-5.3947,-5.4052,-5.4116,-5.4139,-5.42,-5.4257,-5.4294,-5.4353,-5.4394,-5.446,-5.4451,-5.4478,-5.4525,-5.4567,-5.4621,-5.4562,-5.4647,-5.465,-5.4627,-5.4721,-5.4722,-5.4802,-5.4696,-5.4698,-5.47,0,-5.3884,-5.3949,-5.4062,-5.4139,-5.4167,-5.4222,-5.4296,-5.4353,-5.442,-5.4444,-5.4495,-5.4515,-5.4591,-5.4566,-5.4672,-5.4631,-5.4669,-5.4697,-5.4701,-5.4707,-5.4676,-5.4728,-5.4828,-5.484,-5.4719,-5.4717,-5.4716,0,-5.3913,-5.4029,-5.4113,-5.4147,-5.4239,-5.4277,-5.4317,-5.4382,-5.4427,-5.4493,-5.4523,-5.4596,-5.4636,-5.4693,-5.4733,-5.4711,-5.4836,-5.4813,-5.4858,-5.4857,-5.4879,-5.4876,-5.4985,-5.4908,-5.4908,-5.4907,-5.4907,0,-5.3989,-5.4056,-5.4128,-5.4178,-5.4256,-5.43,-5.4376,-5.4418,-5.4477,-5.4537,-5.4562,-5.4618,-5.4669,-5.4733,-5.4766,-5.4849,-5.4867,-5.4888,-5.4895,-5.4884,-5.4882,-5.4907,-5.4902,-5.4911,-5.491,-5.4909,-5.4909,0,-5.4032,-5.4082,-5.4174,-5.4257,-5.428,-5.4333,-5.4404,-5.4455,-5.4496,-5.4572,-5.4592,-5.4655,-5.4732,-5.4779,-5.4876,-5.4898,-5.499,-5.4996,-5.4967,-5.497,-5.5011,-5.5006,-5.5137,-5.5157,-5.5069,-5.507,-5.507,0,-5.4075,-5.4128,-5.4218,-5.4261,-5.4303,-5.4371,-5.4419,-5.4466,-5.4514,-5.4599,-5.464,-5.4719,-5.4784,-5.4906,-5.496,-5.5036,-5.5043,-5.5085,-5.5054,-5.5043,-5.5043,-5.5038,-5.5044,-5.5088,-5.5088,-5.5089,-5.509,0,-5.4147,-5.4171,-5.4238,-5.4316,-5.4372,-5.4435,-5.4498,-5.4532,-5.4591,-5.4645,-5.4725,-5.4776,-5.4878,-5.4956,-5.5037,-5.508,-5.5095,-5.51,-5.5114,-5.5101,-5.5082,-5.5093,-5.4979,-5.5095,-5.5095,-5.5094,-5.5094,-5.5094,-5.419,-5.424,-5.4313,-5.4388,-5.4442,-5.4502,-5.4555,-5.4604,-5.4672,-5.4759,-5.4784,-5.4868,-5.4939,-5.5051,-5.5096,-5.5163,-5.5157,-5.5177,-5.5182,-5.5185,-5.5186,-5.5075,-5.5178,-5.5178,-5.5178,-5.5178,-5.5178,0,-5.4262,-5.4312,-5.4382,-5.4471,-5.4531,-5.4545,-5.4617,-5.4666,-5.474,-5.4806,-5.4872,-5.4966,-5.5044,-5.5107,-5.5188,-5.523,-5.5239,-5.525,-5.5245,-5.5255,-5.5187,-5.5166,-5.5241,-5.5241,-5.5241,-5.5241,-5.5241,-5.5241,-5.4307,-5.4392,-5.4426,-5.454,-5.459,-5.4673,-5.4714,-5.477,-5.4823,-5.4928,-5.4994,-5.5036,-5.5101,-5.5188,-5.5262,-5.5279,-5.5306,-5.5315,-5.5333,-5.5267,-5.526,-5.5253,-5.5233,-5.5321,-5.5321,-5.5396,-5.5397,-5.5397]},{"header":{"parameterUnit":"m.s-1","parameterCategory":1,"la1":30.2991,"la2":30.254,"lo1":-89.0895,"lo2":-89.0444,"dy":0.0017,"dx":0.0017,"nx":28,"ny":28,"refTime":"2023-10-25T03:00:00:Z","depth":0,"parameterNumber":3,"parameterNumberName":"V-component_of_WINDS"},"data":[0,0,0,0,0,0,0,0,0,0,0,0,0,0,0,0,0,0,0,0,0,0,0,0,0,0,0,0,0,0,0,0,0,0,0,0,0,0,0,0,0,0,0,0,0,0,0,0,0,0,0,0,0,0,0,0,0,0,2.3422,2.3423,0,2.3506,2.3507,2.3507,2.3601,2.3602,2.3603,2.3605,2.3688,2.3688,2.3689,0,0,0,0,0,0,0,0,0,0,0,0,0,2.3342,2.3343,2.3422,2.3423,2.3424,2.3505,2.3507,2.3508,2.36,2.3602,2.3604,2.3605,2.3687,2.3688,2.3689,0,0,0,0,0,0,0,0,0,0,0,0,0,2.3396,2.3343,2.3421,2.348,2.3486,2.3505,2.3507,2.3508,2.36,2.3602,2.3604,2.3606,2.3687,2.3688,2.369,2.3657,0,0,2.3694,2.3695,0,0,0,0,0,0,0,0,2.3393,2.3399,2.347,2.3476,2.3483,2.3545,2.3509,2.3558,2.3599,2.3557,2.3605,2.3607,2.3638,2.3644,2.3655,2.3661,2.3665,2.3694,2.3695,2.3695,2.3696,0,0,0,0,0,0,0,2.3389,2.3396,2.3455,2.3471,2.3479,2.3502,2.3512,2.3519,2.3585,2.356,2.3567,2.3576,2.3642,2.3653,2.3657,2.3666,2.3694,2.3695,2.3696,2.3697,2.3654,2.3652,0,0,0,0,0,0,2.3376,2.3392,2.3452,2.3457,2.3442,2.3502,2.3513,2.3523,2.3585,2.3596,2.3574,2.358,2.365,2.3656,2.3661,2.3629,2.3695,2.3697,2.3698,2.3656,2.3653,2.3651,0,0,0,0,0,0,2.3374,2.3381,2.3449,2.3427,2.3437,2.3501,2.3511,2.3523,2.3535,2.3596,2.3608,2.3574,2.3652,2.3659,2.3659,2.3633,2.3697,2.3699,2.3658,2.3655,2.3652,2.3564,0,0,0,0,0,0,2.3372,2.338,2.3368,2.3426,2.3438,2.3445,2.351,2.3523,2.3537,2.3546,2.3598,2.3609,2.3654,2.3656,2.366,2.3636,2.37,2.3661,2.3657,2.3653,2.357,2.3559,2.3549,0,0,0,0,0,2.3368,2.3338,2.3366,2.3373,2.3424,2.3443,2.345,2.3503,2.3535,2.3524,2.3564,2.3607,2.3636,2.3655,2.366,2.3637,2.3662,2.3658,2.3653,2.3574,2.3561,2.3549,0,0,0,0,0,0,2.3274,2.3347,2.3379,2.3366,2.3398,2.3459,2.3446,2.3487,2.3509,2.3516,2.358,2.3592,2.3584,2.3611,2.3631,2.3611,2.3655,2.3652,2.3593,2.3581,2.3571,2.3565,2.3701,0,0,0,0,0,2.3252,2.3261,2.3324,2.3307,2.3322,2.3381,2.3391,2.343,2.3465,2.3478,2.3518,2.3549,2.3566,2.3575,2.3593,2.3574,2.3588,2.3561,2.3551,2.3542,2.3538,2.3533,2.3522,2.3636,2.3637,2.3637,0,0,2.3205,2.3247,2.3248,2.3289,2.3318,2.3327,2.3391,2.3397,2.3404,2.3479,2.3482,2.3512,2.3552,2.3543,2.3541,2.3564,2.351,2.3537,2.3529,2.353,2.3527,2.3516,2.3507,2.3633,2.3634,2.3634,0,0,2.3126,2.3158,2.3148,2.3177,2.3221,2.3261,2.3259,2.3314,2.3338,2.3342,2.3399,2.3409,2.3435,2.3462,2.3479,2.3414,2.3456,2.3418,2.3364,2.3359,2.335,2.3342,2.332,2.3312,2.3414,2.3414,2.3414,0,2.3063,2.3079,2.3138,2.3142,2.3159,2.3229,2.322,2.3245,2.3292,2.3302,2.3329,2.3366,2.3397,2.3397,2.3382,2.3392,2.3393,2.3412,2.3346,2.3339,2.3333,2.3313,2.3305,2.3409,2.341,2.341,2.3411,0,2.3,2.301,2.2998,2.3044,2.3059,2.3056,2.3116,2.3125,2.3163,2.3201,2.3206,2.3247,2.3276,2.3279,2.3315,2.3284,2.3298,2.3334,2.3381,2.3316,2.3299,2.3292,2.3402,2.3404,2.3405,2.3407,0,0,2.2861,2.2943,2.2937,2.296,2.3015,2.3024,2.3026,2.3056,2.3063,2.3094,2.3098,2.312,2.3156,2.3175,2.3215,2.321,2.3158,2.3248,2.325,2.3231,2.313,2.3102,2.3092,2.3187,2.3186,2.3185,2.3127,0,2.2793,2.28,2.2855,2.2847,2.2858,2.2926,2.2928,2.2962,2.2998,2.3013,2.3053,2.3069,2.3113,2.3126,2.3124,2.3165,2.3139,2.317,2.3191,2.3191,2.318,2.3083,2.3054,2.2997,2.312,2.3119,2.3118,0,2.2713,2.2741,2.2734,2.2793,2.28,2.28,2.2834,2.2847,2.2888,2.2915,2.2938,2.2985,2.2992,2.3035,2.3046,2.3066,2.3078,2.31,2.3099,2.3103,2.3151,2.3085,2.298,2.2971,2.3108,2.3108,2.3109,0,2.2615,2.2651,2.2653,2.267,2.2737,2.2736,2.2764,2.2808,2.2823,2.2853,2.2864,2.2893,2.2909,2.2931,2.2984,2.3011,2.299,2.3037,2.3013,2.3011,2.3005,2.3004,2.29,2.3011,2.3011,2.3011,2.3012,0,2.2532,2.2526,2.261,2.261,2.2606,2.267,2.2664,2.2698,2.2737,2.2746,2.2806,2.2814,2.2884,2.29,2.2942,2.2945,2.2952,2.2974,2.2985,2.2969,2.2966,2.2978,2.2983,2.3009,2.301,2.301,2.3011,0,2.2421,2.2477,2.2483,2.2548,2.2564,2.2558,2.2613,2.2617,2.2658,2.2669,2.2676,2.2739,2.2762,2.2818,2.2853,2.2882,2.2875,2.2895,2.2861,2.2868,2.2841,2.2843,2.2741,2.2732,2.2847,2.2846,2.2845,0,2.2365,2.2363,2.2427,2.2439,2.2465,2.2481,2.2499,2.2562,2.2578,2.2626,2.2625,2.2652,2.2677,2.2709,2.2759,2.2787,2.2809,2.2772,2.2814,2.2799,2.2811,2.281,2.2811,2.2762,2.2761,2.2759,2.2758,0,2.2261,2.229,2.2312,2.2345,2.2364,2.2393,2.2425,2.2431,2.2502,2.2517,2.2541,2.2561,2.2599,2.2626,2.2663,2.2692,2.2737,2.2745,2.2741,2.2725,2.2706,2.2717,2.2837,2.2747,2.2748,2.2749,2.2749,2.275,2.2177,2.2179,2.2226,2.225,2.2281,2.231,2.2318,2.2361,2.2382,2.242,2.2456,2.2477,2.2521,2.2575,2.2602,2.262,2.2643,2.2636,2.2635,2.2633,2.2626,2.2703,2.2626,2.2627,2.2627,2.2628,2.2628,0,2.2077,2.2112,2.2133,2.2177,2.2196,2.2239,2.2277,2.2291,2.2309,2.2346,2.2371,2.24,2.2427,2.248,2.2512,2.2516,2.2538,2.2522,2.2523,2.2529,2.2603,2.2604,2.2504,2.2504,2.2504,2.2504,2.2504,2.2505,2.2028,2.2034,2.2068,2.2091,2.2125,2.2147,2.2166,2.2193,2.2224,2.2254,2.2278,2.2313,2.2357,2.2393,2.2421,2.2436,2.2445,2.2423,2.2444,2.2512,2.2524,2.2535,2.2536,2.2424,2.2424,2.237,2.2369,2.2369]}]]